Weather History for KISW - March, 2013

Change the Weather History Date:

Friday, March 8, 2013

  Actual Average (KSTE) Record (KSTE)
Temperature  
Mean Temperature 27 °F -  
Max Temperature 39 °F 36 °F - (-1)
Min Temperature 15 °F 15 °F - (-1)
Degree Days  
Heating Degree Days 38    
Moisture  
Dew Point 18 °F    
Average Humidity 69    
Maximum Humidity 88    
Minimum Humidity 49    
Precipitation  
Precipitation 0.00 in - - ()
Sea Level Pressure  
Sea Level Pressure 30.40 in    
Wind  
Wind Speed 5 mph (SSE)    
Max Wind Speed 12 mph    
Max Gust Speed 16 mph    
Visibility 10 miles    
Events      
Averages and records for this station are not official NWS values.
T = Trace of Precipitation, MM = Missing Value Source: NWS Daily Summary

Daily Weather History Graph

Daily Weather History Graph

Search for Another Location

Airport or City:

Trip Planner

Search our weather history database for the weather conditions in past years. The results will help you decide how hot, cold, wet, or windy it might be!

Date:

Astronomy

Mar. 08, 2013 Rise Set
Actual Time 6:23 AM CST 5:56 PM CST
Civil Twilight 5:54 AM CST 6:25 PM CST
Nautical Twilight 5:21 AM CST 6:59 PM CST
Astronomical Twilight 4:47 AM CST 7:33 PM CST
Moon 4:14 AM CST (3/8) 2:46 PM CST (3/8)
Length of Visible Light 12h 30m
Length of Day
11h 33m
Waning Crescent, 11% of the Moon is Illuminated
Mar 8
Waning Crescent
Mar 11
New
Mar 19
First Quarter
Mar 27
Full
Apr 2
Last Quarter

Hourly Weather History & Observations

Time (CST) Temp. Windchill Dew Point Humidity Pressure Visibility Wind Dir Wind Speed Gust Speed Precip Events Conditions
12:54 AM 19.0 °F 12.3 °F 12.0 °F 74% 30.46 in 10.0 mi SE 4.6 mph - N/A   Clear
1:54 AM 18.0 °F 11.1 °F 12.0 °F 78% 30.47 in 10.0 mi SE 4.6 mph - N/A   Clear
2:54 AM 17.1 °F - 12.0 °F 81% 30.47 in 10.0 mi Calm Calm - N/A   Clear
3:54 AM 16.0 °F 10.4 °F 12.0 °F 84% 30.46 in 10.0 mi SE 3.5 mph - N/A   Clear
4:54 AM 16.0 °F - 10.9 °F 81% 30.46 in 9.0 mi Calm Calm - N/A   Clear
5:54 AM 15.1 °F - 12.0 °F 88% 30.47 in 9.0 mi Calm Calm - N/A   Clear
6:54 AM 17.1 °F 10.0 °F 12.9 °F 84% 30.48 in 9.0 mi SE 4.6 mph - N/A   Clear
7:54 AM 21.0 °F 12.4 °F 16.0 °F 81% 30.47 in 10.0 mi SSE 6.9 mph - N/A   Clear
8:54 AM 26.1 °F 19.4 °F 19.0 °F 75% 30.47 in 10.0 mi South 5.8 mph - N/A   Clear
9:54 AM 30.0 °F 21.1 °F 21.0 °F 69% 30.46 in 10.0 mi SSE 10.4 mph 16.1 mph N/A   Clear
10:54 AM 33.1 °F 26.1 °F 21.0 °F 61% 30.44 in 10.0 mi SSE 8.1 mph - N/A   Clear
11:54 AM 36.0 °F 28.5 °F 21.0 °F 55% 30.43 in 10.0 mi SSW 10.4 mph - N/A   Clear
12:54 PM 37.0 °F 29.3 °F 21.0 °F 52% 30.40 in 10.0 mi South 11.5 mph - N/A   Clear
1:54 PM 39.0 °F 34.8 °F 21.0 °F 49% 30.38 in 10.0 mi Variable 5.8 mph - N/A   Clear
2:54 PM 39.0 °F 34.8 °F 21.9 °F 50% 30.37 in 10.0 mi Variable 5.8 mph - N/A   Clear
3:54 PM 39.9 °F 33.9 °F 21.9 °F 49% 30.35 in 10.0 mi SSE 9.2 mph - N/A   Clear
4:54 PM 37.9 °F 32.7 °F 21.9 °F 53% 30.36 in 10.0 mi Variable 6.9 mph - N/A   Clear
5:54 PM 36.0 °F 31.1 °F 21.9 °F 57% 30.36 in 10.0 mi SE 5.8 mph - N/A   Clear
6:54 PM 33.1 °F 27.7 °F 23.0 °F 66% 30.36 in 10.0 mi SE 5.8 mph - N/A   Clear
7:54 PM 32.0 °F 25.6 °F 21.9 °F 66% 30.36 in 10.0 mi SSE 6.9 mph - N/A   Clear
8:54 PM 30.0 °F 23.2 °F 21.9 °F 72% 30.33 in 10.0 mi SE 6.9 mph - N/A   Clear
9:54 PM 28.9 °F 22.8 °F 21.9 °F 75% 30.31 in 10.0 mi SE 5.8 mph - N/A   Clear
10:54 PM 28.0 °F 24.2 °F 21.0 °F 75% 30.30 in 10.0 mi SE 3.5 mph - N/A   Clear
11:54 PM 30.0 °F 22.4 °F 21.9 °F 72% 30.26 in 10.0 mi SE 8.1 mph - N/A   Clear